This demonstration page uses our WeatherBlox Daily Observations layout. Learn more.

Left ArrowRight Arrow

Hourly Observations for September 9, 2021

Temp ( °F °C ) Dew Point ( °F °C ) Humidity (%) Winds ( mph kmh ) Pressure ( in mb ) Visibility ( mi km ) Precip ( " mm )
12:15 am 00:15 Clear 60 15.7 56 13.2 85 85 ENE 8 13 30.04 1017 10 16 N/A
12:35 am 00:35 Clear 60 15.5 56 13.4 87 87 ENE 8 13 30.04 1017 10 16 N/A
12:55 am 00:55 Clear 60 15.8 56 13.3 85 85 ENE 9 15 30.04 1017 10 16 N/A
1:15 am 01:15 Clear 60 15.5 55 13 85 85 E 8 13 30.04 1017 10 16 N/A
1:35 am 01:35 Clear 60 15.6 55 13 85 85 E 8 13 30.04 1017 10 16 N/A
1:55 am 01:55 Clear 60 15.3 55 13 86 86 E 9 15 30.05 1017 10 16 N/A
2:15 am 02:15 Clear 61 15.9 55 12.5 80 80 E 12 19 30.04 1017 10 16 N/A
2:35 am 02:35 Clear 60 15.7 55 12.5 81 81 E 9 15 30.04 1017 10 16 N/A
2:55 am 02:55 Clear 60 15.5 54 12.2 81 81 E 8 13 30.04 1017 10 16 N/A
3:15 am 03:15 Clear 60 15.5 53 11.7 78 78 E 9 15 30.04 1017 10 16 N/A
3:35 am 03:35 Clear 60 15.4 52 11.3 77 77 E 8 13 30.04 1017 10 16 N/A
3:55 am 03:55 Clear 59 15.1 52 11.1 77 77 E 8 13 30.04 1017 10 16 N/A
4:15 am 04:15 Clear 58 14.6 52 11 79 79 E 7 11 30.04 1017 10 16 N/A
4:35 am 04:35 Clear 58 14.6 51 10.8 78 78 E 6 9 30.04 1017 10 16 N/A
4:55 am 04:55 Clear 57 14.1 51 10.8 81 81 E 6 9 30.04 1017 10 16 N/A
5:15 am 05:15 Clear 56 13.6 51 10.8 83 83 ENE 5 7 30.05 1018 10 16 N/A
5:35 am 05:35 Clear 55 13 51 10.7 86 86 E 6 9 30.05 1017 10 16 N/A
5:55 am 05:55 Clear 56 13.5 51 10.7 83 83 E 7 11 30.04 1017 10 16 N/A
6:15 am 06:15 Clear 55 13 51 10.6 85 85 E 6 9 30.05 1017 10 16 N/A
6:35 am 06:35 Clear 55 12.5 51 10.5 88 88 E 6 9 30.05 1018 10 16 N/A
6:55 am 06:55 Clear 55 12.6 51 10.5 87 87 ENE 6 9 30.05 1018 10 16 N/A
7:15 am 07:15 Sunny 53 11.9 51 10.3 90 90 ENE 3 6 30.06 1018 10 16 N/A
7:35 am 07:35 Sunny 54 12 51 10.5 91 91 E 6 9 30.06 1018 10 16 N/A
7:55 am 07:55 Sunny 54 12.4 51 10.6 89 89 E 7 11 30.05 1018 10 16 N/A
8:15 am 08:15 Sunny 56 13.3 52 10.9 86 86 E 8 13 30.04 1017 10 16 N/A
8:35 am 08:35 Sunny 57 14 52 11.2 83 83 E 5 7 30.04 1017 10 16 N/A
8:55 am 08:55 Sunny 58 14.5 52 11.3 81 81 E 6 9 30.03 1017 10 16 N/A
9:15 am 09:15 Sunny 59 15.1 53 11.8 81 81 ESE 5 7 30.02 1017 10 16 N/A
9:35 am 09:35 Sunny 61 15.9 54 12.1 78 78 E 5 7 30.01 1016 10 16 N/A
9:55 am 09:55 Sunny 63 17.1 55 13 77 77 E 3 6 30.00 1016 10 16 N/A
10:15 am 10:15 Sunny 64 17.8 55 12.7 72 72 E 3 6 30.00 1016 10 16 N/A
10:35 am 10:35 Sunny 66 18.8 56 13.3 71 71 E 6 9 29.99 1015 10 16 N/A
10:55 am 10:55 Sunny 67 19.7 56 13.6 68 68 E 5 7 29.98 1015 10 16 N/A
11:15 am 11:15 Sunny 69 20.5 55 12.7 61 61 N N/A 29.97 1015 10 16 N/A
11:35 am 11:35 Sunny 70 21 56 13.6 63 63 N N/A 29.97 1015 10 16 N/A
11:55 am 11:55 Sunny 71 21.8 58 14.3 63 63 N N/A 29.96 1015 10 16 N/A
12:15 pm 12:15 Sunny 73 22.5 58 14.3 60 60 N N/A 29.95 1014 10 16 N/A
12:35 pm 12:35 Sunny 74 23.1 58 14.2 57 57 E 3 6 29.93 1014 10 16 N/A
12:55 pm 12:55 Sunny 75 23.8 57 13.8 54 54 E 7 11 29.93 1013 10 16 N/A
1:15 pm 13:15 Sunny 75 24.1 58 14.4 55 55 E 7 11 29.92 1013 10 16 N/A
1:35 pm 13:35 Sunny 76 24.6 58 14.2 52 52 E 9 15 29.91 1013 10 16 N/A
1:55 pm 13:55 Sunny 77 25.2 59 14.9 53 53 E 8 13 29.89 1012 10 16 N/A
2:15 pm 14:15 Sunny 77 25.2 60 15.3 54 54 E 6 9 29.89 1012 10 16 N/A
2:35 pm 14:35 Sunny 78 25.7 60 15.3 53 53 ESE 9 15 29.88 1012 10 16 N/A
2:55 pm 14:55 Sunny 78 25.8 58 14.7 50 50 E 8 13 29.88 1012 10 16 N/A
3:15 pm 15:15 Sunny 79 26.2 59 14.8 50 50 ESE 7 11 29.88 1012 10 16 N/A
3:35 pm 15:35 Sunny 79 26.2 60 15.5 52 52 E 8 13 29.88 1012 10 16 N/A
3:55 pm 15:55 Sunny 80 26.6 59 15.1 49 49 SE 7 11 29.87 1012 10 16 N/A
4:15 pm 16:15 Sunny 80 26.5 58 14.4 47 47 ESE 10 17 29.86 1011 10 16 N/A
4:35 pm 16:35 Sunny 80 26.5 58 14.3 47 47 ESE 10 17 29.86 1011 10 16 N/A
4:55 pm 16:55 Sunny 79 26.3 58 14.5 48 48 ESE 9 15 29.87 1011 10 16 N/A
5:15 pm 17:15 Sunny 79 26.2 59 15.2 51 51 ESE 9 15 29.87 1011 10 16 N/A
5:35 pm 17:35 Sunny 79 26.3 59 15.1 50 50 ESE 8 13 29.86 1011 10 16 N/A
5:55 pm 17:55 Sunny 79 26.1 60 15.4 52 52 SE 7 11 29.86 1011 10 16 N/A
6:15 pm 18:15 Sunny 78 25.6 61 16 55 55 SSE 5 7 29.87 1012 10 16 N/A
6:35 pm 18:35 Sunny 77 25 61 16 57 57 SE 6 9 29.87 1011 10 16 N/A
6:55 pm 18:55 Sunny 76 24.2 61 16.1 61 61 SE 7 11 29.87 1012 10 16 N/A
7:15 pm 19:15 Sunny 74 23.1 62 16.5 67 67 SE 6 9 29.88 1012 10 16 N/A
7:35 pm 19:35 Sunny 71 21.5 61 16.3 72 72 ESE 7 11 29.88 1012 10 16 N/A
7:55 pm 19:55 Sunny 68 20.2 61 16.3 78 78 ESE 7 11 29.90 1012 10 16 N/A
8:15 pm 20:15 Clear 67 19.5 60 15.8 79 79 ESE 7 11 29.90 1013 10 16 N/A
8:35 pm 20:35 Clear 66 19.1 60 15.7 81 81 ESE 8 13 29.90 1013 10 16 N/A
8:55 pm 20:55 Clear 67 19.2 60 15.5 79 79 ESE 7 11 29.90 1013 10 16 N/A
9:15 pm 21:15 Clear 65 18.2 60 15.6 85 85 SE 7 11 29.92 1013 10 16 N/A
9:35 pm 21:35 Clear 65 18.4 60 15.5 83 83 SE 6 9 29.92 1013 10 16 N/A
9:55 pm 21:55 Clear 64 17.8 60 15.5 86 86 SE 6 9 29.93 1013 10 16 N/A
10:15 pm 22:15 Clear 64 17.5 59 15.2 86 86 SE 5 7 29.93 1013 10 16 N/A
10:35 pm 22:35 Clear 63 17.3 59 15.1 87 87 SE 5 7 29.92 1013 10 16 N/A
10:55 pm 22:55 Clear 63 17.4 59 15 86 86 SSE 6 9 29.92 1013 10 16 N/A
11:15 pm 23:15 Clear 64 17.8 59 15.2 85 85 SSE 5 7 29.92 1013 10 16 N/A
11:35 pm 23:35 Clear 64 17.8 59 15.2 85 85 SSE 3 6 29.92 1013 10 16 N/A
11:55 pm 23:55 Clear 64 17.8 59 15 84 84 SSE 5 7 29.92 1013 10 16 N/A

Powered by AerisWeather